Stations météo

Publicité
St-Etienne Boutheon, France (7475): Température de l'air & dewpoint: 14.04.2019 22:00:00 - 20.04.2019 22:00:00 (CEST)St-Etienne Boutheon, France (7475): Température de l'air 5cm: 14.04.2019 22:00:00 - 20.04.2019 22:00:00 (CEST)St-Etienne Boutheon, France (7475): Température de l'air -20cm & Température de l'air -100cm: 14.04.2019 22:00:00 - 20.04.2019 22:00:00 (CEST)St-Etienne Boutheon, France (7475): Vitesse du vent & gusts: 14.04.2019 22:00:00 - 20.04.2019 22:00:00 (CEST)St-Etienne Boutheon, France (7475): Direction du vent: 14.04.2019 22:00:00 - 20.04.2019 22:00:00 (CEST)St-Etienne Boutheon, France (7475): reduced air pressure: 14.04.2019 22:00:00 - 20.04.2019 22:00:00 (CEST)St-Etienne Boutheon, France (7475): visibility: 14.04.2019 22:00:00 - 20.04.2019 22:00:00 (CEST)St-Etienne Boutheon, France (7475): Ensoleillement: 14.04.2019 22:00:00 - 20.04.2019 22:00:00 (CEST)St-Etienne Boutheon, France (7475): Quantités de précipitations: 14.04.2019 22:00:00 - 20.04.2019 22:00:00 (CEST)
Date & Time tt [°C] td [°C] tt 5cm [°C] tt -20cm [°C] tt -100cm [°C] ff [km/h] ff [knt] fx [km/h] fx [knt] dd ppp [hPa] vv [km] sd [min] rr [mm]
20.04.2019 22:00:00 11,2 8,2 7,2 15,5 11,0 4 2 6 3 SE 1022,1 43 0 0,0
20.04.2019 21:00:00 13,7 7,9 9,6 15,6 11,0 0 0 12 7 N 1021,5 46 12 0,0
20.04.2019 20:00:00 16,1 8,1 15,4 15,7 11,0 8 5 17 9 N 1021,1 55 16 0,0
20.04.2019 19:00:00 17,5 6,4 18,4 15,6 11,0 3 2 11 6 SE 1020,7 60 29 0,0
20.04.2019 18:00:00 18,3 7,4 18,9 15,6 10,9 9 5 24 13 W 1020,7 53 25 0,0
20.04.2019 17:00:00 17,1 8,5 13,5 15,4 11,0 15 8 30 16 SW 1021,4 47 2 0,0
20.04.2019 16:00:00 16,4 7,9 12,1 15,0 11,0 3 2 37 20 WSW 1021,6 20 0 0,6
20.04.2019 15:00:00 21,3 6,4 23,8 14,4 10,9 12 6 27 15 N 1021,1 44 50 0,0
20.04.2019 14:00:00 21,1 6,2 27,7 13,8 10,9 13 7 29 16 NNW 1021,8 47 60 0,0
20.04.2019 13:00:00 20,3 6,2 22,6 13,4 10,9 11 6 26 14 NNW 1022,9 48 43 0,0
20.04.2019 12:00:00 19,0 5,8 24,0 13,2 10,9 15 8 26 14 N 1023,8 46 58 0,0
20.04.2019 11:00:00 17,7 5,3 21,6 13,1 10,9 10 5 19 10 NW 1024,5 51 36 0,0
20.04.2019 10:00:00 16,5 4,2 20,3 13,1 10,9 3 2 10 6 NNW 1024,8 50 46 0,0
20.04.2019 09:00:00 14,5 4,5 13,7 13,3 10,9 6 3 17 9 SSE 1025,4 49 57 0,0
20.04.2019 08:00:00 10,7 4,4 5,6 13,5 10,8 9 5 14 7 S 1025,8 41 18 0,0
20.04.2019 07:00:00 9,2 2,5 4,9 13,8 10,8 10 5 13 7 SSE 1025,7 45 0 0,0
20.04.2019 06:00:00 9,6 3,1 5,8 14,1 10,8 9 5 14 8 SSE 1025,4 44 0 0,0
20.04.2019 05:00:00 10,8 3,3 6,5 14,3 10,8 8 4 16 8 SSE 1025,6 46 0 0,0
20.04.2019 04:00:00 11,3 3,3 6,8 14,6 10,8 10 5 16 8 S 1025,3 48 0 0,0
20.04.2019 03:00:00 12,0 3,2 8,8 14,9 10,8 11 6 22 12 SSE 1025,2 46 0 0,0
20.04.2019 02:00:00 12,8 3,7 8,8 15,2 10,8 10 5 20 11 SSE 1025,5 47 0 0,0
20.04.2019 01:00:00 12,3 3,5 7,2 15,5 10,8 14 7 22 12 S 1025,8 46 0 0,0
20.04.2019 00:00:00 10,7 4,8 7,7 15,8 10,8 12 7 16 9 SSE 1026,1 36 0 0,0
19.04.2019 23:00:00 14,7 5,2 9,1 16,0 10,8 3 2 10 5 WSW 1025,5 38 0 0,0
19.04.2019 22:00:00 17,5 5,7 12,6 16,1 10,8 5 3 16 8 SSE 1024,5 44 0 0,0
19.04.2019 21:00:00 19,3 5,0 17,4 16,2 10,7 11 6 25 13 SE 1023,6 48 2 0,0
19.04.2019 20:00:00 20,9 4,9 19,8 16,1 10,7 16 9 30 16 ESE 1022,7 47 60 0,0
19.04.2019 19:00:00 22,4 5,3 22,2 15,8 10,7 17 9 28 15 ESE 1022,3 36 49 0,0
19.04.2019 18:00:00 22,7 5,6 22,7 15,3 10,7 17 9 29 16 E 1022,2 44 34 0,0
19.04.2019 17:00:00 23,6 5,9 24,4 14,7 10,7 18 10 44 24 E 1021,9 50 47 0,0
19.04.2019 16:00:00 24,5 2,0 29,5 14,0 10,7 11 6 31 17 W 1022,1 60 60 0,0
19.04.2019 15:00:00 23,9 2,7 29,0 13,4 10,7 15 8 35 19 S 1022,5 54 60 0,0
19.04.2019 14:00:00 23,3 1,6 28,8 12,8 10,7 20 11 35 19 SSW 1022,9 42 60 0,0
19.04.2019 13:00:00 22,8 1,2 27,9 12,3 10,7 18 10 41 22 S 1023,4 36 60 0,0
19.04.2019 12:00:00 21,8 3,4 27,1 12,0 10,7 12 7 27 14 S 1023,9 36 60 0,0
19.04.2019 11:00:00 19,7 3,8 20,4 11,9 10,6 9 5 20 11 SSE 1024,6 17 43 0,0
19.04.2019 10:00:00 16,2 5,2 17,6 12,0 10,7 2 1 6 3 E 1025,0 35 7 0,0
19.04.2019 09:00:00 13,0 5,4 10,6 12,1 10,6 3 2 9 5 E 1025,0 19 40 0,0
19.04.2019 08:00:00 8,4 3,4 2,2 12,4 10,6 7 4 9 5 S 1025,2 36 17 0,0
19.04.2019 07:00:00 5,7 1,6 0,4 12,7 10,6 5 3 10 5 SSE 1024,9 42 0 0,0
19.04.2019 06:00:00 6,8 0,5 1,5 12,9 10,6 4 2 7 4 E 1024,0 45 0 0,0
19.04.2019 05:00:00 8,6 0,3 3,9 13,2 10,6 3 1 13 7 ESE 1023,5 52 0 0,0
19.04.2019 04:00:00 12,7 0,4 6,2 13,4 10,6 8 4 21 11 SSW 1022,5 55 0 0,0
19.04.2019 03:00:00 13,1 1,1 5,4 13,7 10,6 17 9 23 12 SSE 1022,4 56 0 0,0
19.04.2019 02:00:00 12,3 2,4 6,9 13,9 10,6 9 5 16 9 S 1022,7 47 0 0,0
19.04.2019 01:00:00 13,3 2,8 10,5 14,1 10,6 12 7 19 11 S 1022,3 47 0 0,0
19.04.2019 00:00:00 13,6 3,1 11,0 14,3 10,5 11 6 27 14 S 1022,0 46 0 0,0
18.04.2019 23:00:00 13,9 3,1 10,2 14,6 10,6 14 8 22 12 S 1021,5 52 0 0,0
18.04.2019 22:00:00 13,3 3,1 10,0 14,7 10,6 13 7 22 12 S 1021,0 53 0 0,0
18.04.2019 21:00:00 14,4 2,6 11,6 14,7 10,6 15 8 27 15 S 1020,1 59 0 0,0
18.04.2019 20:00:00 18,3 2,2 17,0 14,6 10,5 18 10 32 18 S 1018,9 60 52 0,0
18.04.2019 19:00:00 21,1 1,4 23,3 14,3 10,5 22 12 36 19 S 1017,8 60 60 0,0
18.04.2019 18:00:00 21,8 2,0 24,5 14,0 10,5 17 9 39 21 SSW 1017,1 60 60 0,0
18.04.2019 17:00:00 22,1 3,2 26,2 13,5 10,5 27 15 48 26 S 1016,8 41 60 0,0
18.04.2019 16:00:00 22,4 0,8 25,3 13,1 10,5 30 16 49 26 S 1016,7 39 54 0,0
18.04.2019 15:00:00 21,8 2,5 25,2 12,6 10,5 27 15 52 28 SSW 1016,8 20 52 0,0
18.04.2019 14:00:00 21,7 3,4 25,6 12,2 10,5 27 14 47 26 S 1016,7 44 60 0,0
18.04.2019 13:00:00 21,0 3,7 25,1 11,8 10,5 32 17 51 28 S 1017,1 41 60 0,0
18.04.2019 12:00:00 20,5 3,7 24,0 11,5 10,5 34 18 58 31 S 1017,2 46 60 0,0
18.04.2019 11:00:00 19,9 3,6 23,4 11,4 10,4 37 20 56 30 S 1017,5 53 60 0,0
18.04.2019 10:00:00 15,9 4,0 18,0 11,5 10,4 6 4 14 7 S 1018,3 51 60 0,0
18.04.2019 09:00:00 13,0 3,6 8,9 11,7 10,4 4 2 7 4 E 1019,0 54 51 0,0
18.04.2019 08:00:00 6,0 2,6 1,4 11,9 10,4 4 2 9 5 E 1020,2 52 6 0,0
18.04.2019 07:00:00 4,6 1,6 1,4 12,2 10,4 4 2 10 6 E 1019,6 53 0 0,0
18.04.2019 06:00:00 4,8 1,8 1,4 12,5 10,4 5 3 11 6 SE 1019,1 56 0 0,0
18.04.2019 05:00:00 5,8 3,0 1,0 12,8 10,4 5 3 8 4 SE 1019,1 53 0 0,0
18.04.2019 04:00:00 6,1 2,9 2,2 13,1 10,4 3 2 7 4 NE 1019,1 45 0 0,0
18.04.2019 03:00:00 6,3 3,8 2,5 13,4 10,4 5 3 10 5 SE 1019,3 46 0 0,0
18.04.2019 02:00:00 8,0 4,0 3,5 13,6 10,4 7 4 14 8 SE 1019,5 48 0 0,0
18.04.2019 01:00:00 11,9 3,9 9,3 13,9 10,4 13 7 27 15 S 1018,8 60 0 0,0
18.04.2019 00:00:00 13,6 5,0 12,0 14,1 10,4 18 10 34 18 SSE 1018,2 59 0 0,0
17.04.2019 23:00:00 14,2 5,0 10,7 14,4 10,4 19 11 31 17 SSE 1017,9 57 0 0,0
17.04.2019 22:00:00 13,7 3,7 8,5 14,6 10,4 15 8 20 11 SSE 1017,7 60 0 0,0
17.04.2019 21:00:00 13,3 3,9 10,4 14,7 10,4 11 6 29 16 S 1017,2 20 0 0,0
17.04.2019 20:00:00 16,5 4,2 15,1 14,7 10,3 21 12 34 19 S 1016,2 60 0 0,0
17.04.2019 19:00:00 18,4 5,2 18,5 14,5 10,4 23 13 39 21 S 1015,4 56 33 0,0
17.04.2019 18:00:00 20,4 4,4 23,8 14,1 10,4 23 12 37 20 S 1014,9 60 60 0,0
17.04.2019 17:00:00 21,0 6,1 23,4 13,5 10,4 22 12 35 19 SSE 1014,8 57 56 0,0
17.04.2019 16:00:00 21,2 5,9 26,4 12,8 10,4 17 9 36 20 SE 1015,0 57 60 0,0
17.04.2019 15:00:00 20,5 7,5 25,5 12,0 10,3 13 7 28 15 E 1015,6 20 60 0,0
17.04.2019 14:00:00 19,0 6,5 26,0 11,2 10,3 9 5 22 12 E 1016,6 55 60 0,0
17.04.2019 13:00:00 18,2 8,5 20,5 10,6 10,3 5 3 24 13 NE 1017,3 57 48 0,0
17.04.2019 12:00:00 16,0 8,7 22,5 10,1 10,3 8 4 19 10 WNW 1018,3 43 60 0,0
17.04.2019 11:00:00 13,7 7,5 19,6 10,0 10,3 4 2 11 6 NNE 1019,2 37 60 0,0
17.04.2019 10:00:00 11,4 6,5 16,1 10,0 10,3 4 2 11 6 W 1020,4 20 60 0,0
17.04.2019 09:00:00 8,7 6,0 9,0 10,2 10,3 4 2 9 5 SSW 1020,9 37 51 0,0
17.04.2019 08:00:00 3,8 3,5 -2,1 10,5 10,3 4 2 8 5 ENE 1022,0 14 41 0,0
17.04.2019 07:00:00 1,6 1,2 -2,3 10,8 10,3 2 1 4 2 SSW 1022,2 9 0 0,0
17.04.2019 06:00:00 1,9 1,3 -2,4 11,1 10,3 5 3 6 3 ESE 1022,1 2,5 0 0,0
17.04.2019 05:00:00 2,9 2,5 -2,1 11,4 10,3 3 1 5 3 SSE 1022,0 0,4 0 0,0
17.04.2019 04:00:00 4,0 3,4 -0,7 11,7 10,3 2 1 5 3 SSE 1021,9 2,9 0 0,0
17.04.2019 03:00:00 5,2 4,5 0,5 11,9 10,3 3 2 4 2 ESE 1022,0 1,2 0 0,0
17.04.2019 02:00:00 7,1 6,4 2,3 12,1 10,2 3 1 6 3 SSE 1021,8 43 0 0,0
17.04.2019 01:00:00 8,8 7,1 7,1 12,3 10,2 4 2 6 3 E 1021,5 20 0 0,0
17.04.2019 00:00:00 10,0 7,2 8,7 12,4 10,2 3 2 8 4 W 1021,1 44 0 0,0
16.04.2019 23:00:00 11,1 7,6 9,8 12,6 10,2 5 3 19 11 E 1020,7 60 0 0,0
16.04.2019 22:00:00 12,0 8,1 8,9 12,7 10,3 10 5 21 11 N 1020,1 60 0 0,0
16.04.2019 21:00:00 10,6 7,3 9,1 12,7 10,3 13 7 21 11 S 1019,4 60 0 0,0
16.04.2019 20:00:00 13,9 8,1 13,3 12,7 10,2 13 7 17 9 SSE 1018,3 60 0 0,0
16.04.2019 19:00:00 15,5 6,5 15,8 12,4 10,2 9 5 27 15 WSW 1017,8 41 6 0,0
16.04.2019 18:00:00 16,6 6,7 16,9 12,0 10,2 13 7 29 16 WSW 1017,4 53 15 0,0
16.04.2019 17:00:00 15,7 7,2 17,4 11,6 10,2 14 8 24 13 S 1017,4 59 44 0,0
16.04.2019 16:00:00 15,3 8,8 16,9 11,3 10,2 15 8 40 21 S 1017,8 58 31 0,0
16.04.2019 15:00:00 14,1 9,1 11,8 11,1 10,2 18 10 29 16 S 1018,5 60 20 0,2
16.04.2019 14:00:00 11,1 7,8 10,0 11,0 10,2 16 8 26 14 SSW 1019,4 31 0 0,2
16.04.2019 13:00:00 10,4 7,8 10,2 10,9 10,2 16 9 27 15 S 1019,6 20 0 0,6
16.04.2019 12:00:00 10,0 7,6 9,4 10,9 10,2 16 9 30 16 S 1019,6 13 0 0,8
16.04.2019 11:00:00 10,1 7,2 9,5 10,9 10,2 13 7 25 14 SSW 1019,1 17 0 0,2
16.04.2019 10:00:00 9,2 6,8 8,0 11,0 10,2 10 5 19 10 SSW 1019,0 16 0 0,6
16.04.2019 09:00:00 8,5 5,8 7,2 11,0 10,2 6 3 18 10 S 1018,9 16 0 0,6
16.04.2019 08:00:00 8,5 5,1 6,8 11,2 10,2 12 6 28 15 S 1018,3 18 0 0,8
16.04.2019 07:00:00 9,0 4,2 6,9 11,3 10,2 18 10 42 23 S 1017,3 20 0 0,4
16.04.2019 06:00:00 10,6 1,9 7,6 11,4 10,2 21 12 45 24 S 1016,5 40 0 0,0
16.04.2019 05:00:00 11,8 0,2 9,6 11,5 10,2 8 4 26 14 SSW 1016,4 60 0 0,0
16.04.2019 04:00:00 12,8 -0,5 11,8 11,6 10,2 19 10 34 18 SSW 1016,0 60 0 0,0
16.04.2019 03:00:00 12,7 0,1 10,0 11,6 10,2 13 7 23 12 SSW 1016,0 60 0 0,0
16.04.2019 02:00:00 12,8 1,5 11,3 11,8 10,2 4 2 35 19 SW 1016,0 60 0 0,0
16.04.2019 01:00:00 12,7 2,0 11,2 11,9 10,2 21 11 36 20 S 1014,9 60 0 0,0
16.04.2019 00:00:00 12,1 1,7 11,1 12,1 10,2 21 12 55 30 S 1014,7 60 0 0,0
15.04.2019 23:00:00 12,5 2,3 11,2 12,2 10,2 28 15 43 23 S 1014,5 60 0 0,0
15.04.2019 22:00:00 12,4 2,3 11,3 12,3 10,2 18 10 37 20 S 1014,6 60 0 0,0
15.04.2019 21:00:00 13,0 0,7 10,8 12,4 10,2 19 11 35 19 SSE 1014,1 60 0 0,0
15.04.2019 20:00:00 14,1 -0,4 13,2 12,3 10,2 21 11 44 24 S 1013,6 60 0 0,0
15.04.2019 19:00:00 15,4 0,4 15,4 12,1 10,2 29 16 48 26 S 1013,2 56 1 0,0
15.04.2019 18:00:00 17,3 -0,9 19,3 11,7 10,2 29 16 46 25 S 1012,4 51 57 0,0
15.04.2019 17:00:00 18,1 -1,7 21,8 11,2 10,2 31 17 46 25 SSE 1012,2 49 60 0,0
15.04.2019 16:00:00 18,1 -1,7 22,3 10,5 10,2 33 18 46 25 SSE 1013,0 52 60 0,0
15.04.2019 15:00:00 15,5 0,5 19,9 9,8 10,2 10 5 19 10 ESE 1014,4 27 42 0,0
15.04.2019 14:00:00 14,2 1,1 20,0 9,1 10,2 7 4 34 18 ESE 1015,9 18 60 0,0
15.04.2019 13:00:00 12,5 0,9 18,9 8,5 10,2 6 3 22 12 N 1017,1 17 60 0,0
15.04.2019 12:00:00 10,3 -0,8 17,0 8,2 10,2 9 5 34 19 ENE 1018,5 19 60 0,0
15.04.2019 11:00:00 9,2 -1,5 14,0 8,0 10,2 8 4 22 12 SW 1019,7 16 60 0,0
15.04.2019 10:00:00 6,4 -2,8 9,8 8,1 10,2 4 2 14 7 WSW 1020,6 16 60 0,0
15.04.2019 09:00:00 3,5 -3,5 2,0 8,3 10,2 6 3 10 6 SE 1021,4 17 47 0,0
15.04.2019 08:00:00 -1,9 -4,9 -7,1 8,6 10,2 4 2 8 4 SW 1022,8 14 34 0,0
15.04.2019 07:00:00 -4,4 -7,0 -9,5 8,9 10,2 4 2 6 3 ENE 1022,9 12 0 0,0
15.04.2019 06:00:00 -4,1 -6,9 -9,8 9,2 10,2 4 2 9 5 SSE 1022,8 14 0 0,0
15.04.2019 05:00:00 -5,4 -8,5 -9,8 9,6 10,2 8 4 9 5 S 1023,4 12 0 0,0
15.04.2019 04:00:00 -3,8 -6,4 -9,7 9,9 10,2 4 2 9 5 E 1023,1 14 0 0,0
15.04.2019 03:00:00 -3,1 -5,7 -9,4 10,3 10,3 3 1 6 4 SE 1023,3 14 0 0,0
15.04.2019 02:00:00 -2,7 -5,8 -8,6 10,7 10,2 2 1 5 3 SSE 1023,4 15 0 0,0
15.04.2019 01:00:00 -1,3 -5,2 -7,8 11,0 10,2 4 2 6 4 SSE 1023,2 18 0 0,0
15.04.2019 00:00:00 -0,6 -5,4 -6,4 11,4 10,2 4 2 8 4 ESE 1023,3 19 0 0,0
14.04.2019 23:00:00 1,8 -5,4 -6,0 11,7 10,3 3 2 8 4 WSW 1022,4 21 0 0,0
14.04.2019 22:00:00 3,4 -4,8 -0,4 11,9 10,2 5 3 19 10 N 1021,7 24 0 0,0

tt = Température de l'air
td = dewpoint
tt 5cm = Température de l'air 5cm
tt -20cm = Température de l'air -20cm
tt -100cm = Température de l'air -100cm
ff = Vitesse du vent
fx = gusts
dd = Direction du vent
ppp = reduced air pressure
vv = visibility
sd = Ensoleillement
rr = Quantités de précipitations

stations d'obs. à proximité